Location: Rancho Del Sol Observatory
(38.7214°N, 120.6350°W)
Time: 05:20:29
(UTC-07:00)

Cosmos 2221 Rocket - Visible Passes

Search period start: 03 July 2015 00:00
Search period end: 13 July 2015 00:00
Orbit: 621 x 649 km, 82.5° (Epoch: 02 July)

Date Brightness Start Highest point End Pass type
(mag) Time Alt. Az. Time Alt. Az. Time Alt. Az.
03 Jul 4.8 21:06:17 10° NNE 21:10:05 26° ENE 21:13:56 10° SE visible
03 Jul 5.6 22:44:31 10° NW 22:48:14 25° W 22:51:33 11° SW visible
04 Jul 3.8 21:28:10 10° N 21:32:37 56° E 21:36:40 12° SSE visible
04 Jul 6.4 23:08:41 10° WNW 23:10:24 12° W 23:11:49 10° WSW visible
05 Jul 4.0 21:50:31 10° NNW 21:55:01 66° W 21:59:19 11° S visible
06 Jul 5.3 22:13:18 10° NNW 22:17:17 30° W 22:21:12 10° SSW visible
07 Jul 4.1 20:57:15 10° N 21:01:36 45° ENE 21:05:58 10° SSE visible
07 Jul 6.3 22:36:54 10° NW 22:39:28 14° W 22:41:49 10° WSW visible
08 Jul 3.7 21:19:29 10° N 21:24:02 82° W 21:28:34 10° S visible
09 Jul 5.1 21:42:08 10° NNW 21:46:20 37° W 21:50:29 10° SSW visible
10 Jul 6.2 22:05:26 10° NW 22:08:32 18° W 22:11:29 10° SW visible
12 Jul 4.8 21:11:01 10° NNW 21:15:22 46° W 21:19:42 10° SSW visible
